TimeCDT,TemperatureF,Dew PointF,Humidity,Sea Level PressureIn,VisibilityMPH,Wind Direction,Wind SpeedMPH,Gust SpeedMPH,PrecipitationIn,Events,Conditions,WindDirDegrees,DateUTC
12:09 AM,53.6,53.6,100,29.75,7.0,SSW,10.4,-,0.00,Rain,Light Rain,200,2013-03-11 05:09:00
12:26 AM,53.6,53.6,100,29.74,8.0,SSW,9.2,-,0.00,,Overcast,200,2013-03-11 05:26:00
12:53 AM,54.0,53.1,97,29.73,7.0,SSW,9.2,-,0.00,,Overcast,200,2013-03-11 05:53:00
1:39 AM,53.6,51.8,94,29.73,10.0,SSW,11.5,-,N/A,,Overcast,210,2013-03-11 06:39:00
1:46 AM,53.6,51.8,94,29.73,9.0,SSW,11.5,-,N/A,,Overcast,210,2013-03-11 06:46:00
1:53 AM,54.0,52.0,93,29.73,10.0,SSW,12.7,-,N/A,,Overcast,210,2013-03-11 06:53:00
2:01 AM,53.6,51.8,94,29.74,10.0,SW,9.2,-,N/A,,Overcast,220,2013-03-11 07:01:00
2:53 AM,53.1,51.1,93,29.71,9.0,SW,10.4,-,0.00,,Overcast,220,2013-03-11 07:53:00
3:53 AM,52.0,50.0,93,29.69,8.0,SSW,10.4,-,N/A,,Overcast,210,2013-03-11 08:53:00
4:34 AM,51.8,48.2,88,29.68,9.0,SSW,18.4,-,N/A,,Overcast,210,2013-03-11 09:34:00
4:42 AM,51.8,48.2,88,29.67,10.0,SSW,12.7,-,N/A,,Overcast,200,2013-03-11 09:42:00
5:53 AM,50.0,48.0,93,29.70,10.0,SW,10.4,-,N/A,,Overcast,230,2013-03-11 10:53:00
6:13 AM,48.2,46.4,93,29.69,9.0,WNW,9.2,-,N/A,,Overcast,290,2013-03-11 11:13:00
6:51 AM,46.4,44.6,93,29.71,8.0,West,6.9,-,N/A,,Overcast,260,2013-03-11 11:51:00
6:53 AM,46.9,45.0,93,29.71,8.0,West,8.1,-,N/A,,Overcast,260,2013-03-11 11:53:00
7:22 AM,46.4,46.4,100,29.72,7.0,SW,5.8,-,N/A,,Overcast,230,2013-03-11 12:22:00
7:53 AM,46.9,45.0,93,29.70,7.0,SSW,6.9,-,N/A,,Overcast,210,2013-03-11 12:53:00
8:33 AM,46.4,44.6,93,29.70,6.0,SW,8.1,-,N/A,,Overcast,230,2013-03-11 13:33:00
8:53 AM,46.9,45.0,93,29.70,5.0,West,9.2,-,N/A,,Overcast,260,2013-03-11 13:53:00
9:06 AM,44.6,42.8,93,29.70,6.0,WNW,17.3,23.0,N/A,,Overcast,290,2013-03-11 14:06:00
9:40 AM,42.8,41.0,93,29.73,5.0,West,12.7,-,0.00,,Overcast,270,2013-03-11 14:40:00
9:47 AM,42.8,39.2,87,29.74,5.0,West,13.8,-,0.00,,Overcast,270,2013-03-11 14:47:00
9:53 AM,42.1,39.9,92,29.75,3.0,West,15.0,20.7,0.00,Rain,Light Rain,270,2013-03-11 14:53:00
10:14 AM,42.8,39.2,87,29.74,5.0,West,16.1,-,0.01,Rain,Light Rain,270,2013-03-11 15:14:00
10:41 AM,41.0,37.4,87,29.74,6.0,West,18.4,23.0,0.01,Rain,Light Rain,260,2013-03-11 15:41:00
10:49 AM,41.0,39.2,93,29.74,4.0,West,19.6,-,0.01,Rain,Light Rain,260,2013-03-11 15:49:00
10:53 AM,41.0,39.0,93,29.75,4.0,West,17.3,-,0.01,Rain,Light Rain,270,2013-03-11 15:53:00
11:18 AM,41.0,37.4,87,29.76,6.0,West,15.0,23.0,0.00,,Overcast,260,2013-03-11 16:18:00
11:53 AM,41.0,37.0,86,29.76,6.0,West,18.4,23.0,0.00,,Overcast,270,2013-03-11 16:53:00
12:24 PM,41.0,37.4,87,29.77,6.0,WSW,18.4,-,N/A,,Overcast,250,2013-03-11 17:24:00
12:53 PM,41.0,37.0,86,29.76,6.0,West,17.3,-,N/A,,Overcast,260,2013-03-11 17:53:00
1:53 PM,42.1,34.0,73,29.76,9.0,West,20.7,-,N/A,,Overcast,260,2013-03-11 18:53:00
2:53 PM,39.0,32.0,76,29.78,10.0,WSW,23.0,27.6,N/A,,Overcast,250,2013-03-11 19:53:00
3:53 PM,37.0,30.9,79,29.81,9.0,WSW,21.9,26.5,N/A,,Overcast,250,2013-03-11 20:53:00
4:53 PM,37.0,30.9,79,29.83,9.0,West,11.5,-,N/A,,Overcast,270,2013-03-11 21:53:00
5:53 PM,37.0,30.0,76,29.86,7.0,West,18.4,25.3,N/A,,Overcast,270,2013-03-11 22:53:00
6:53 PM,37.0,30.0,76,29.89,8.0,West,12.7,-,N/A,,Overcast,260,2013-03-11 23:53:00
7:53 PM,36.0,30.0,79,29.92,8.0,WSW,11.5,-,N/A,,Overcast,250,2013-03-12 00:53:00
8:53 PM,36.0,28.9,76,29.94,8.0,West,10.4,-,N/A,,Overcast,270,2013-03-12 01:53:00
9:53 PM,36.0,28.9,76,29.96,8.0,West,12.7,-,N/A,,Overcast,270,2013-03-12 02:53:00
11:46 PM,35.6,26.6,70,29.98,9.0,West,10.4,-,N/A,,Overcast,270,2013-03-12 04:46:00
11:53 PM,36.0,28.0,73,29.99,9.0,West,8.1,-,N/A,,Overcast,260,2013-03-12 04:53:00